This is the latest recevied weather packets stored in our database for station/object W2GUX. If no packets are shown the sender has not sent any weather packets the latest 1 day(s).
| Time | Temp. | Humidity | Pressure | Rain* | Wind** | Luminosity | Snow |
|---|---|---|---|---|---|---|---|
| 1778017203 | 27.78° C | 22% | 1003.6 hPa | 0 mm | 3.13 m/s, 198° | - | - |
| 1778016903 | 27.78° C | 22% | 1003.5 hPa | 0 mm | 4.02 m/s, 192° | - | - |
| 1778016604 | 27.78° C | 22% | 1003.5 hPa | 0 mm | 3.13 m/s, 193° | - | - |
| 1778016303 | 28.33° C | 23% | 1003.4 hPa | 0 mm | 3.13 m/s, 187° | - | - |
| 1778016003 | 28.33° C | 23% | 1003.4 hPa | 0 mm | 3.58 m/s, 182° | - | - |
| 1778015703 | 28.33° C | 22% | 1003.5 hPa | 0 mm | 4.02 m/s, 189° | - | - |
| 1778015403 | 28.33° C | 22% | 1003.5 hPa | 0 mm | 3.13 m/s, 201° | - | - |
| 1778015103 | 28.89° C | 22% | 1003.4 hPa | 0 mm | 3.58 m/s, 196° | - | - |
| 1778014804 | 28.89° C | 22% | 1003.5 hPa | 0 mm | 4.47 m/s, 181° | - | - |
| 1778014503 | 28.89° C | 22% | 1003.4 hPa | 0 mm | 2.68 m/s, 178° | - | - |
| 1778014203 | 28.89° C | 22% | 1003.4 hPa | 0 mm | 2.24 m/s, 189° | - | - |
| 1778013903 | 28.89° C | 22% | 1003.5 hPa | 0 mm | 3.58 m/s, 188° | - | - |
| 1778013603 | 28.89° C | 23% | 1003.4 hPa | 0 mm | 4.02 m/s, 189° | - | - |
| 1778013303 | 28.89° C | 22% | 1003.5 hPa | 0 mm | 4.47 m/s, 188° | - | - |
| 1778013003 | 28.89° C | 22% | 1003.5 hPa | 0 mm | 4.47 m/s, 187° | - | - |
| 1778012703 | 28.89° C | 22% | 1003.5 hPa | 0 mm | 4.47 m/s, 186° | - | - |
| 1778012403 | 28.89° C | 23% | 1003.6 hPa | 0 mm | 3.58 m/s, 188° | - | - |
| 1778012103 | 28.89° C | 23% | 1003.7 hPa | 0 mm | 4.47 m/s, 185° | - | - |
| 1778011804 | 28.89° C | 22% | 1003.6 hPa | 0 mm | 4.92 m/s, 184° | - | - |
| 1778011504 | 28.89° C | 21% | 1003.7 hPa | 0 mm | 3.13 m/s, 190° | - | - |
| 1778011203 | 28.89° C | 22% | 1003.7 hPa | 0 mm | 3.58 m/s, 194° | - | - |
| 1778010903 | 28.89° C | 23% | 1003.6 hPa | 0 mm | 3.13 m/s, 197° | - | - |
| 1778010604 | 28.89° C | 23% | 1003.8 hPa | 0 mm | 3.58 m/s, 192° | - | - |
| 1778010303 | 28.89° C | 24% | 1003.8 hPa | 0 mm | 4.47 m/s, 188° | - | - |
| 1778010003 | 28.89° C | 23% | 1004 hPa | 0 mm | 4.92 m/s, 189° | - | - |
* Rain latest hour (hover to see other rain measurements)
** Current wind speed in m/s (hover to see current wind gust speed)